This is the latest recevied weather packets stored in our database for station/object KC4JES. If no packets are shown the sender has not sent any weather packets the latest 10 day(s).
| Time | Temp. | Humidity | Pressure | Rain* | Wind** | Luminosity | Snow |
|---|---|---|---|---|---|---|---|
| 1777491615 | 33.33° C | 45% | 1012.6 hPa | 0 mm | - | 135 W/m² | - |
| 1777491313 | 32.22° C | 49% | 1012.9 hPa | 0 mm | - | 903 W/m² | - |
| 1777491010 | 32.78° C | 46% | 1012.8 hPa | 0 mm | - | 136 W/m² | - |
| 1777490705 | 32.78° C | 48% | 1013.1 hPa | 0 mm | - | 865 W/m² | - |
| 1777490402 | 31.67° C | 49% | 1013.2 hPa | 0 mm | - | 922 W/m² | - |
| 1777490099 | 32.78° C | 47% | 1013.2 hPa | 0 mm | - | 116 W/m² | - |
| 1777489796 | 32.78° C | 50% | 1013.3 hPa | 0 mm | - | 949 W/m² | - |
| 1777489494 | 31.67° C | 51% | 1013.4 hPa | 0 mm | - | 960 W/m² | - |
| 1777489190 | 31.11° C | 51% | 1013.4 hPa | 0 mm | - | 126 W/m² | - |
| 1777488887 | 31.67° C | 50% | 1013.5 hPa | 0 mm | - | 150 W/m² | - |
| 1777488584 | 32.22° C | 50% | 1013.5 hPa | 0 mm | - | 304 W/m² | - |
| 1777488282 | 31.67° C | 51% | 1013.7 hPa | 0 mm | - | 223 W/m² | - |
| 1777487980 | 31.11° C | 52% | 1013.9 hPa | 0 mm | - | 970 W/m² | - |
| 1777487677 | 31.11° C | 54% | 1013.7 hPa | 0 mm | - | 432 W/m² | - |
| 1777487374 | 31.67° C | 51% | 1013.7 hPa | 0 mm | - | 303 W/m² | - |
| 1777487072 | 31.67° C | 51% | 1014.1 hPa | 0 mm | - | 355 W/m² | - |
| 1777486767 | 32.22° C | 51% | 1014.1 hPa | 0 mm | - | 652 W/m² | - |
| 1777486466 | 31.67° C | 53% | 1014.4 hPa | 0 mm | - | 565 W/m² | - |
| 1777486163 | 31.67° C | 53% | 1014.4 hPa | 0 mm | - | 621 W/m² | - |
| 1777485860 | 31.11° C | 53% | 1014.6 hPa | 0 mm | - | 159 W/m² | - |
| 1777485560 | 30.56° C | 55% | 1014.8 hPa | 0 mm | - | 271 W/m² | - |
| 1777485257 | 30° C | 58% | 1014.6 hPa | 0 mm | - | 167 W/m² | - |
| 1777484953 | 30.56° C | 55% | 1014.7 hPa | 0 mm | - | 172 W/m² | - |
| 1777484650 | 30.56° C | 56% | 1015 hPa | 0 mm | - | 191 W/m² | - |
| 1777484347 | 30.56° C | 54% | 1014.9 hPa | 0 mm | - | 194 W/m² | - |
* Rain latest hour (hover to see other rain measurements)
** Current wind speed in m/s (hover to see current wind gust speed)